Temp
25 23 21 21 21 21 21 21 21 21 21 21 21 21 20 20 20 20 20 20 21 21 21 21 21 22 22 21 21 21 21 21 21 21 21 20 20 20 20 21 22 23 21
24 23 21 21 21 21 21 21 21 21 21 21 21 21 20 20 20 20 20 21 20 21 21 21 21 21 21 21 21 21 21 21 21 21 21 21 20 20 20 21 22 21 20
26 24 22 21 21 21 21 21 21 21 21 20 20 20 20 20 20 20 21 20 20 21 21 21 21 21 21 21 21 21 21 21 21 22 23 25 22 20 20 20 20 20 20
27 26 24 21 21 22 21 21 22 21 20 20 20 20 20 19 20 21 21 22 21 22 21 21 21 21 21 21 21 21 21 21 22 23 26 25 23 20 20 20 20 20 20
26 26 23 21 21 21 21 22 21 20 20 20 20 20 20 19 20 20 20 22 22 22 21 21 21 21 21 21 21 21 20 21 22 24 24 24 24 21 20 20 20 20 21
27 26 22 21 21 21 22 21 21 21 20 20 19 19 19 19 19 20 20 22 21 21 21 21 21 21 21 21 21 21 20 22 23 24 24 23 23 20 20 20 20 20 20
27 26 24 21 21 21 22 21 21 21 21 20 20 20 19 20 19 21 21 21 21 21 20 21 21 21 21 21 21 21 21 22 24 24 25 25 22 20 20 20 20 20 19
27 26 24 22 22 21 21 21 22 21 21 21 21 21 21 21 21 21 21 21 21 21 21 21 21 21 21 21 22 21 22 22 25 24 25 25 22 20 20 20 20 20 19
26 26 26 25 22 21 21 21 21 21 21 21 21 21 22 22 21 21 21 21 21 21 21 21 21 21 22 21 21 21 22 23 25 25 26 26 22 20 20 20 20 20 19
26 26 26 26 25 25 24 21 21 21 21 21 21 21 21 21 21 21 21 22 21 21 21 21 21 22 22 22 22 22 23 24 26 25 26 24 23 21 20 20 21 20 20
25 25 27 26 25 24 23 22 22 21 22 22 22 21 22 24 23 22 22 21 21 21 21 21 22 22 22 23 23 23 24 27 27 26 26 24 23 22 20 20 20 21 20
27 25 26 26 25 25 25 24 24 24 24 24 23 22 22 23 23 23 22 21 21 21 21 22 22 22 24 26 25 24 26 26 26 26 26 24 23 22 21 20 20 21 21
28 26 25 25 25 25 24 25 25 25 24 23 23 23 22 23 24 24 24 24 23 22 23 24 23 24 25 25 26 26 26 26 27 27 26 25 24 23 22 21 21 20 20
27 26 26 25 24 25 25 25 24 25 24 25 24 22 23 22 24 24 24 24 23 24 25 23 25 24 24 24 25 26 26 26 27 27 27 25 24 24 23 21 21 21 20
28 27 27 25 24 24 24 25 24 24 25 25 23 23 23 23 24 25 24 25 24 25 25 25 25 25 25 25 25 26 25 26 27 27 27 26 25 24 24 23 21 21 21
28 28 27 25 24 24 24 23 24 24 24 24 24 23 22 23 24 24 23 25 25 25 25 25 25 25 25 25 26 26 26 27 27 26 27 27 26 25 24 23 23 22 21
28 28 27 26 25 24 23 23 23 24 24 24 24 23 22 23 23 23 23 23 24 25 23 24 24 24 25 26 26 26 26 26 26 26 26 27 27 26 25 24 24 23 22
29 27 26 27 26 24 25 24 24 25 25 24 25 24 23 23 23 23 23 23 23 22 23 25 25 25 26 26 26 27 27 27 27 26 26 26 27 27 25 25 24 23 23
28 27 26 26 26 26 24 24 24 24 24 25 25 25 25 24 23 23 25 25 24 25 23 25 26 24 24 25 26 27 27 27 27 27 26 26 26 25 26 26 24 23 23
28 27 27 26 26 25 25 24 24 25 25 25 25 25 24 24 24 24 25 24 24 25 24 25 24 24 24 23 26 28 27 27 27 26 26 26 26 25 25 25 25 24 23
28 28 26 26 25 25 25 25 26 26 26 25 25 24 23 24 24 23 24 24 24 24 23 24 23 24 24 24 25 27 28 27 27 27 26 26 26 26 26 23 24 25 24
29 28 26 25 25 25 25 25 26 26 26 26 25 24 24 24 24 23 23 24 24 25 24 24 24 25 25 25 25 27 29 29 27 27 27 26 25 25 25 24 24 24 24
30 28 26 26 25 25 26 25 24 25 25 25 25 25 24 24 24 23 22 24 23 23 23 23 24 24 25 25 25 25 27 26 29 28 26 27 26 26 25 24 24 23 23
31 29 27 26 25 25 25 26 26 27 28 28 27 26 25 24 24 24 24 23 23 24 23 23 23 24 24 26 26 26 24 26 27 28 28 28 26 26 26 26 27 26 24
32 30 28 26 25 26 25 26 25 25 27 27 27 25 24 24 23 24 23 23 23 24 23 23 24 24 25 25 26 24 25 24 25 27 29 30 29 27 26 26 26 26 25
31 30 28 26 26 25 25 25 25 26 25 25 26 26 26 26 25 24 24 23 23 23 23 23 23 23 23 23 24 23 25 25 25 28 29 29 29 28 27 26 26 26 25
Height
797 798 797 796 796 796 797 797 798 799 799 798 798 800 803 805 808 811 814 816 817 818 820 820 821 822 823 825 826 827 828 830 831 831 832 832 832 833 833 834 834 834 836
799 800 800 799 798 798 799 800 801 799 798 797 799 801 803 806 810 813 817 819 820 821 822 823 823 824 826 827 829 830 831 832 832 833 832 834 835 835 836 836 835 836 837
799 801 802 801 801 801 801 803 803 802 800 798 799 802 804 809 812 815 819 820 822 822 825 826 826 826 829 830 832 832 833 834 834 833 833 835 837 838 838 838 839 839 839
800 800 804 804 804 804 806 807 806 805 801 800 802 806 808 811 815 818 821 822 824 826 827 828 829 831 832 832 834 835 835 836 836 834 834 836 839 839 840 840 841 841 841
802 803 806 806 807 808 809 810 810 810 806 804 803 809 811 814 816 820 823 824 827 829 830 831 832 833 835 836 837 837 838 838 838 838 839 840 841 841 841 842 842 842 842
803 804 807 808 809 811 813 813 814 816 815 814 807 812 816 819 820 825 827 829 829 831 832 834 835 837 838 839 839 840 840 839 841 841 842 842 843 843 844 844 844 844 844
804 807 810 811 812 814 815 817 818 819 821 821 822 823 821 824 822 830 830 832 833 833 835 837 838 839 840 841 841 842 841 841 843 843 843 842 845 845 846 846 846 846 846
806 808 812 814 815 817 819 820 821 822 824 825 827 828 829 832 833 834 834 834 835 837 838 840 841 841 841 842 842 843 842 842 844 844 844 843 845 845 846 846 847 848 848
808 810 813 815 818 819 822 824 824 825 827 828 829 831 833 833 835 835 835 836 838 840 842 842 842 842 842 843 844 843 843 843 844 844 844 844 845 846 847 847 848 849 850
811 813 814 817 819 820 824 826 827 827 828 830 831 832 834 835 837 836 836 837 840 842 843 843 843 843 844 845 845 844 844 844 844 845 844 844 845 846 848 848 849 850 850
812 815 815 818 822 824 826 828 829 829 830 830 831 833 835 836 838 840 839 839 840 843 843 843 843 844 845 845 845 845 844 842 842 844 844 844 844 846 848 848 849 850 851
811 815 817 818 822 825 826 829 831 832 832 833 833 835 836 838 839 839 841 842 843 844 843 843 843 844 844 844 844 845 843 844 844 844 843 844 844 845 847 848 848 849 851
810 814 818 821 823 825 828 829 830 832 833 835 836 836 837 839 839 840 841 843 844 843 843 843 844 844 844 844 844 844 843 844 842 841 841 843 843 844 845 847 847 849 850
810 814 817 821 824 826 828 829 831 833 834 835 837 838 838 838 840 840 842 843 843 843 843 844 844 844 844 844 844 843 842 842 841 840 839 841 842 842 843 845 846 847 849
810 814 816 820 824 827 828 829 831 833 834 835 837 838 839 839 840 841 842 842 843 843 843 843 843 843 844 843 843 842 842 841 840 838 838 838 840 840 841 842 844 845 847
810 813 816 820 823 826 828 830 831 833 834 836 837 838 839 840 841 842 842 842 842 842 841 842 843 843 842 842 841 841 839 838 837 838 837 836 836 837 838 839 841 842 843
809 813 816 819 822 824 827 830 831 832 834 835 836 837 838 840 841 841 842 842 842 841 842 842 842 842 841 840 839 839 837 836 835 835 835 834 833 833 834 834 837 838 840
808 813 816 818 820 823 825 827 829 831 832 834 835 836 838 839 840 841 841 840 840 840 840 838 839 838 837 836 835 834 832 831 832 832 832 831 831 830 830 830 832 835 837
808 812 815 817 819 822 825 826 827 829 830 831 833 834 835 837 838 837 837 836 838 837 837 836 835 837 837 835 833 831 829 829 829 828 829 829 829 829 828 826 829 830 832
807 810 814 816 819 821 823 826 826 826 827 828 830 831 832 833 834 834 834 833 833 833 833 834 835 835 835 835 831 826 826 826 826 827 827 827 827 827 826 826 827 826 828
804 807 812 814 816 818 821 822 824 824 825 827 827 828 828 829 830 830 831 831 831 831 832 832 831 831 831 829 830 825 821 821 823 824 824 824 825 825 824 824 826 825 825
799 803 807 810 813 815 817 819 821 822 823 824 825 826 826 827 828 828 828 828 828 828 829 829 828 828 828 827 829 824 817 817 819 820 822 823 823 823 823 824 825 826 826
793 798 803 806 810 813 816 817 820 822 823 824 824 824 824 825 825 826 826 825 825 825 826 825 825 826 825 826 825 826 822 822 816 817 820 820 821 821 822 823 823 823 824
786 793 799 803 808 811 814 815 817 816 817 818 821 822 823 823 823 824 824 824 824 824 824 824 824 824 824 821 821 820 824 823 821 815 815 817 820 820 820 820 819 820 821
783 788 794 800 804 807 810 812 815 817 817 817 818 820 821 822 822 823 823 823 822 823 823 823 823 822 821 821 818 821 821 822 822 820 813 810 813 816 818 819 818 817 818
779 785 790 795 800 804 807 809 813 816 817 818 818 818 819 820 821 821 822 823 822 822 822 822 822 822 821 820 820 820 820 820 819 816 812 811 811 813 816 817 816 816 816
Wind_Speed
7 6 8 9 9 10 13 14 14 12 10 8 13 19 24 25 26 26 23 23 20 18 18 18 17 16 17 18 17 16 16 16 15 16 16 14 14 13 11 10 8 9 10
8 9 9 10 11 11 14 13 13 12 9 4 12 21 26 28 26 25 23 21 20 17 16 15 17 17 18 18 16 16 16 15 16 14 14 14 13 12 11 9 11 10 9
11 11 10 10 11 12 14 12 14 15 15 12 17 22 26 26 26 23 21 19 17 15 13 13 16 17 17 17 17 16 15 14 15 15 9 15 13 13 12 11 11 10 9
11 11 11 11 11 13 13 12 16 20 18 15 20 22 26 26 26 21 18 18 16 13 11 16 18 17 17 17 16 16 14 14 15 9 13 15 14 14 12 12 11 10 9
11 12 10 11 12 13 14 14 18 24 31 30 28 24 24 29 28 20 16 15 10 9 11 15 18 18 16 16 16 15 12 12 14 12 12 12 12 13 12 9 11 9 9
12 13 11 12 14 15 15 15 17 22 28 33 31 27 25 23 23 19 15 19 7 12 15 17 18 16 18 16 16 12 10 14 10 10 12 12 11 11 10 9 10 9 9
12 13 12 13 14 15 16 15 17 19 22 26 29 30 29 30 25 22 19 16 13 15 16 18 15 15 14 13 10 9 8 11 8 9 9 10 9 10 8 7 8 8 8
12 12 12 13 14 15 17 16 16 18 19 21 22 22 23 23 23 16 15 14 12 14 15 14 13 12 11 10 9 6 6 7 7 8 7 9 7 8 8 6 6 7 8
10 11 11 13 12 14 14 15 16 16 17 17 16 16 16 15 15 12 13 13 12 12 11 11 10 10 9 8 6 7 7 8 7 7 6 7 5 6 6 5 4 6 7
9 9 11 11 10 11 12 13 14 14 14 15 15 15 15 14 13 14 13 12 10 9 9 9 8 7 6 5 5 5 5 7 5 6 6 5 3 5 4 4 4 4 5
9 8 8 10 9 10 11 11 13 13 13 13 13 13 12 12 11 10 11 10 9 8 8 8 6 4 2 2 1 3 3 2 5 3 3 2 2 3 4 3 2 3 5
10 9 8 8 10 9 9 9 10 10 9 9 9 9 10 9 8 9 9 9 8 8 7 5 3 2 1 2 3 1 2 2 1 1 2 4 2 2 4 5 4 4 6
9 9 9 8 8 9 8 8 8 8 9 8 7 7 7 7 6 5 5 6 4 5 4 2 3 3 3 3 3 3 2 4 3 4 1 5 5 5 5 8 7 6 7
9 8 9 9 9 8 8 7 7 7 7 8 7 6 5 3 4 3 3 2 2 2 3 5 5 4 5 5 5 5 5 5 6 6 5 7 7 8 8 10 11 9 9
9 8 8 9 9 8 7 6 6 5 6 6 6 6 6 4 3 3 2 3 3 3 5 5 5 6 6 7 8 7 8 9 9 10 9 9 10 9 10 12 15 12 11
7 8 8 8 8 8 8 7 6 6 5 6 6 5 6 5 3 3 4 4 5 5 5 6 6 7 8 8 9 10 11 12 11 10 13 12 12 13 13 13 15 17 15
9 8 8 8 8 8 8 8 7 6 6 5 5 5 5 5 5 5 5 6 6 6 7 8 9 9 8 10 10 12 12 11 12 13 13 12 11 11 12 15 14 19 18
8 8 8 7 9 8 7 6 6 7 8 8 7 7 7 7 7 6 7 7 6 8 7 7 8 8 10 10 11 12 13 12 12 13 14 14 12 11 9 12 15 16 19
10 10 10 9 8 8 7 6 5 5 6 8 7 7 6 6 7 7 8 7 6 7 6 8 8 6 8 10 11 10 11 10 10 10 10 11 12 13 12 9 11 16 17
11 12 11 11 9 8 7 7 6 6 6 7 8 6 7 8 8 8 7 6 6 5 5 7 7 8 9 9 13 13 11 11 11 11 11 10 10 11 11 12 8 9 16
15 14 14 13 13 12 10 8 6 7 6 7 8 7 7 6 5 5 6 6 6 6 7 8 9 7 8 11 12 13 11 10 11 10 9 7 6 6 7 8 8 8 7
18 18 18 17 16 15 12 9 5 4 5 6 8 8 9 8 8 7 8 5 6 8 8 9 9 12 9 8 8 13 6 2 6 6 4 3 2 2 2 4 4 5 6
20 21 21 21 21 17 13 10 7 5 5 6 7 8 8 8 9 9 10 11 9 7 6 6 8 9 10 9 11 8 4 2 4 4 5 2 1 1 1 2 2 4 6
21 20 22 22 19 17 16 11 10 8 7 5 7 8 10 9 9 7 7 6 5 4 4 6 6 8 7 11 10 9 8 6 3 2 5 3 2 3 2 3 3 3 5
16 20 22 22 21 18 19 14 13 13 9 5 5 5 9 7 8 6 5 5 4 5 4 5 7 7 7 9 7 4 6 4 5 6 7 1 3 2 2 3 4 4 4
15 17 20 23 24 21 17 17 16 12 12 9 7 5 6 6 6 6 5 5 4 4 4 5 5 6 7 6 4 4 5 5 6 5 5 6 7 3 2 3 3 4 3
Wind_Direction
83 73 73 71 75 80 95 81 71 72 78 96 151 142 140 132 128 126 120 113 107 102 100 106 111 109 102 127 112 109 106 106 104 100 98 94 93 93 98 102 114 116 133
99 87 82 75 70 87 96 81 67 57 51 114 151 145 140 135 132 129 120 112 107 100 101 103 114 106 107 110 110 107 106 106 103 102 108 97 89 87 86 84 80 107 123
112 96 75 71 72 88 98 82 66 57 45 62 147 142 136 135 130 135 127 118 103 100 92 103 113 112 110 110 109 111 110 105 103 110 125 86 86 86 85 83 86 94 110
105 99 87 72 77 86 101 82 63 47 42 78 124 131 126 125 124 133 136 132 105 111 101 117 112 115 115 112 115 107 106 106 103 81 91 89 87 88 86 86 86 96 106
106 98 83 70 80 89 98 84 72 62 76 82 97 114 118 127 126 119 132 146 121 116 113 118 112 107 105 104 106 103 107 107 93 93 94 90 91 92 87 88 87 89 96
109 92 86 75 83 91 96 91 81 81 87 90 94 102 108 113 130 131 129 137 125 114 116 114 115 117 109 112 103 97 102 98 94 95 92 88 92 98 92 83 86 86 92
107 99 88 80 84 91 103 99 94 95 97 99 105 102 102 99 107 116 115 114 103 110 110 111 118 109 103 100 96 91 99 96 104 96 91 92 94 98 101 100 95 92 91
113 103 97 89 88 93 100 102 98 100 107 108 111 115 116 114 109 121 115 112 115 110 110 113 112 109 106 98 86 77 102 110 98 96 91 90 103 112 109 102 99 97 97
118 111 106 102 96 98 100 103 103 102 102 112 118 120 121 121 118 119 113 119 119 118 117 123 121 115 107 92 78 69 104 123 108 98 97 97 96 122 124 109 114 103 101
125 125 116 113 110 111 106 108 105 105 106 108 110 112 114 112 113 114 110 111 117 121 123 121 122 124 109 104 81 77 90 97 101 108 98 85 98 127 133 130 125 129 109
141 139 131 126 123 118 117 116 111 109 108 107 105 112 106 116 119 111 119 114 119 129 133 131 142 138 136 77 91 80 88 169 122 118 103 7 88 128 173 156 157 148 141
152 148 142 132 135 135 125 128 124 123 118 118 121 119 111 118 124 126 132 131 135 145 143 147 170 193 149 215 212 332 194 148 181 166 161 315 316 214 190 209 204 185 163
151 153 160 151 150 146 134 147 141 135 134 129 126 131 131 135 137 143 142 151 154 136 153 166 244 215 237 246 243 249 234 232 248 247 234 299 288 259 222 212 226 212 192
153 160 162 161 159 157 153 154 154 146 148 147 150 144 154 141 159 161 163 171 193 180 202 233 235 244 251 250 250 260 256 255 257 269 253 286 290 272 247 220 221 221 207
161 162 162 163 167 166 167 160 157 157 165 162 157 171 161 174 184 201 217 221 219 225 230 242 254 253 251 254 254 257 269 268 273 274 278 279 281 277 257 240 218 225 216
164 156 157 166 169 169 167 173 171 169 178 172 173 187 194 205 211 234 247 255 245 252 260 258 258 260 255 256 257 263 270 268 269 278 276 271 269 273 263 244 230 224 218
167 162 165 173 172 171 170 166 171 179 185 194 200 212 226 242 252 250 257 262 258 277 268 254 260 261 261 261 261 267 266 266 271 275 271 267 266 269 267 251 236 228 226
175 177 181 182 178 180 179 183 195 199 204 210 211 225 232 240 254 253 255 258 250 264 259 262 260 271 268 275 275 279 278 273 273 272 266 265 274 274 258 259 240 236 229
191 186 190 192 191 187 189 200 216 226 218 219 217 226 222 236 247 253 259 267 273 273 271 270 271 273 274 279 276 268 271 278 279 272 270 267 268 269 272 249 256 240 234
204 199 197 190 193 197 196 203 215 231 233 232 225 227 229 237 248 257 262 280 286 283 295 283 260 261 264 276 287 290 284 275 269 271 275 273 270 271 268 252 247 241 233
207 207 202 197 189 188 196 203 211 215 209 213 211 219 226 232 238 238 250 260 267 256 266 276 264 245 256 286 287 277 261 259 266 263 272 282 285 277 274 261 238 246 238
206 206 200 200 197 195 188 191 209 211 198 191 195 206 215 226 228 242 244 289 255 262 264 267 257 268 269 247 261 288 278 249 255 252 252 289 300 300 286 265 259 248 256
213 207 202 200 201 201 199 185 195 219 217 207 214 218 231 227 234 237 243 251 255 260 277 269 262 261 268 264 248 269 314 289 321 169 207 248 260 269 290 275 270 265 251
213 208 205 200 198 203 202 198 203 217 207 210 219 223 225 226 229 242 249 259 264 264 280 269 250 266 256 261 250 235 268 308 301 353 176 189 286 281 288 276 282 278 266
208 203 201 197 193 189 195 202 211 226 221 233 224 209 218 226 225 249 244 235 243 267 272 289 279 266 264 265 283 261 242 214 228 270 289 244 268 138 253 271 291 297 258
200 195 194 193 197 197 196 201 214 219 226 247 256 252 246 238 234 222 226 240 257 262 273 275 271 265 267 269 266 275 253 241 225 287 287 298 329 291 293 268 296 297 241